Kagel Canyon Street

United States     34˚20′00″N   118˚23′06″W
temp.,
°C
wind,
m/s
gust,
m/s
humid.,
%
clouds,
%
prec.,
mm/h
press.,
hPa
HPBL,
m
1 december, tue
tue101:00+15˚n33240 0.0 102088
04:00+15˚n33200 0.0 102068
07:00+14˚n34240 0.0 1020107
10:00+20˚n24170 0.0 1020317
13:00+24˚nnw23120 0.0 1017648
16:00+23˚n12130 0.0 1017260
19:00+19˚n23160 0.0 101882
22:00+17˚n33160 0.0 101971
2 december, wed
wed201:00+16˚n33120 0.0 101876
04:00+15˚n33130 0.0 101768
07:00+15˚n33140 0.0 101974
10:00+20˚n341040 0.0 1020346
13:00+24˚n33922 0.0 1018737
16:00+22˚n231033 0.0 1019432
19:00+17˚n47101 0.0 1020326
22:00+16˚n611119 0.0 1023427
3 december, thu
thu301:00+14˚n581219 0.0 1023343
04:00+13˚n581325 0.0 1024413
07:00+12˚n5714100 0.0 1025497
10:00+14˚nne4613100 0.0 1026531
13:00+18˚nne45966 0.0 1023677
16:00+18˚nne35933 0.0 1023595
19:00+15˚nne34100 0.0 1024179
22:00+13˚n34110 0.0 1025126
4 december, fri
fri401:00+12˚n34110 0.0 1024114
04:00+12˚n341150 0.0 1023123
07:00+11˚n341260 0.0 1023113
10:00+16˚n34966 0.0 1024278
13:00+19˚nnw227100 0.0 1022516
16:00+19˚n22881 0.0 1021289
19:00+15˚n231027 0.0 1022102
22:00+14˚n22914 0.0 102365
5 december, sat
sat501:00+13˚n2390 0.0 102264
04:00+13˚n3390 0.0 102266
07:00+12˚n3390 0.0 102364
10:00+17˚n3470 0.0 1024297
13:00+21˚nnw2350 0.0 1022619
16:00+21˚n2360 0.0 1022280
19:00+17˚n23767 0.0 102291
22:00+15˚n23783 0.0 102367